Regional Weather Roundup
Issued by NWS Austin/San Antonio, TX

Home | Current Version | Previous Version | Text Only | Print | Product List | Glossary On
Versions: 1 2 3 4 5 6 7 8 9 10 11 12 13 14 15 16 17 18 19 20 21 22 23 24 25 26 27 28 29 30 31 32 33 34 35 36 37 38 39 40 41 42 43 44 45 46 47 48 49 50
428
ASUS44 KEWX 170201
RWREWX
SOUTH TEXAS REGIONAL WEATHER ROUNDUP
NATIONAL WEATHER SERVICE AUSTIN/SAN ANTONIO TX
800 PM CST TUE JAN 16 2018

NOTE: "FAIR" INDICATED FEW OR NO CLOUDS BELOW 12,000 FEET WITH NO
SIGNIFICANT WEATHER AND/OR OBSTRUCTIONS TO VISIBILITY.

* - THESE STATIONS ARE NOT NWS OR FAA STATIONS...AND ARE NOT SUBJECT
    TO NWS AND FAA QUALITY CONTROL.

TXZ171-172-183>190-170300-
TEXAS HILL COUNTRY AND EDWARDS PLATEAU

CITY           SKY/WX    TMP DP  RH WIND       PRES   REMARKS
JUNCTION       CLOUDY    27  -2  28 N7        30.66R WCI  19
*LLANO         CLOUDY    28   1  31 N9        30.74R WCI  20
BURNET         CLOUDY    26   1  34 NW8       30.70R WCI  18
*HORSESHOE BAY CLOUDY    27   3  35 NW10      30.69S WCI  17
*KERRVILLE     CLOUDY    24   2  38 N13       30.65R WCI  13
*FREDERICKSBRG CLOUDY    25  -3  29 N12       30.66R WCI  14
*ROCKSPRINGS     N/A     25  -4  28 N7G13     30.66R WCI  17
*BOERNE STAGE  CLOUDY    27   1  33 N13       30.65S WCI  16
*CASTROVILLE   CLOUDY    30   7  37 N8        30.71R WCI  23
HONDO          CLOUDY    31  16  54 N10       30.69R WCI  22
*UVALDE        CLOUDY    33   7  34 N6        30.68S WCI  27
DEL RIO        CLOUDY    35   0  22 N8        30.68R WCI  29
LAUGHLIN AFB   CLOUDY    34  -2  21 N9        30.67S WCI  27
CARRIZO SPRGS  CLOUDY    34  12  40 N6        30.70S WCI  29
*EAGLE PASS    CLOUDY    36   0  21 NW7       30.70R WCI  30
*FAITH RANCH   CLOUDY    34  12  40 N6        30.70R WCI  29
$$

TXZ173-191>194-202-209-217>225-228-170300-
CENTRAL AND SOUTH CENTRAL TEXAS

CITY           SKY/WX    TMP DP  RH WIND       PRES   REMARKS
GEORGETOWN     CLOUDY    26   5  40 N12       30.73R WCI  16
AUSTIN/BERGSTM CLOUDY    26  11  52 N13       30.72R WCI  15
AUSTIN/MABRY   CLOUDY    27   4  37 VRB7      30.73R WCI  19
*AUSTIN/EXEC   CLOUDY    25   5  42 N17G24    30.72R WCI  11
*LAGO VISTA    CLOUDY    26   4  39 N5        30.68R WCI  20
SAN MARCOS     CLOUDY    27  12  53 N17       30.72R WCI  14
NEW BRAUNFELS  CLOUDY    28  10  46 N21G28    30.69R WCI  15
RANDOLPH AFB   CLOUDY    29   6  37 N12       30.68R WCI  19
PT SAN ANTONIO CLOUDY    30   7  37 N12       30.67R WCI  20
SAN ANTONIO    CLOUDY    29   8  41 N9        30.69R WCI  20
STINSON FIELD  CLOUDY    31  10  41 N14       30.68R WCI  21
*LA GRANGE     CLOUDY    27  12  53 N12G18    30.70R WCI  17
*GIDDINGS      CLOUDY    25  11  56 N8        30.72R WCI  16
*GONZALES      CLOUDY    27  15  61 N13G18    30.71R WCI  16
$$

TXZ163>164-176>182-195>201-210>213-226-227-235-170300-
SOUTHEAST TEXAS

CITY           SKY/WX    TMP DP  RH WIND       PRES   REMARKS
COLLEGE STN    CLOUDY    26  11  52 N14       30.72R WCI  14
*BRYAN         CLOUDY    24   9  51 N10G20    30.74R WCI  14
*CALDWELL      CLOUDY    24  10  54 N13G21    30.73R WCI  12
*CROCKETT        N/A     23  10  58 CALM      30.74R
*BRENHAM       CLOUDY    27  17  65 N16G23    30.72R WCI  14
HUNTSVILLE     CLOUDY    24  14  65 N9        30.70R WCI  14
CONROE         CLOUDY    25  15  66 N12G20    30.68R WCI  14
HOUSTON BUSH   CLOUDY    26  17  68 N15       30.68R WCI  14
HOUSTON HOBBY  CLOUDY    26  19  74 N16       30.68R WCI  14
*HOUSTON SW AP CLOUDY    26  20  80 MISG      30.70R
PEARLAND       CLOUDY    27  21  78 N13       30.69R WCI  16
HOUSTON HOOKS  CLOUDY    26  16  65 N13G23    30.69R WCI  15
ELLINGTON FLD  CLOUDY    27  21  80 N3        30.69R
SUGAR LAND     CLOUDY    27  18  69 N15G23    30.69R WCI  15
*HOUSTON EXEC  CLOUDY    25  18  74 CALM      30.71R
*CLEVELAND MUN CLOUDY    26  17  67 N10       30.69R WCI  16
*WHARTON       CLOUDY    25  18  74 CALM      30.70R
*COLUMBUS      CLOUDY    26  15  63 N12G17    30.71R WCI  15
*EAGLE LAKE    CLOUDY    27  19  73 MISG      30.70R
$$

TXZ214>216-236>238-170300-
THE UPPER TEXAS COAST

CITY           SKY/WX    TMP DP  RH WIND       PRES   REMARKS
*ORANGE        CLOUDY    28  25  87 N8        30.66R WCI  20
PORT ARTHUR    CLOUDY    27  21  78 N12       30.65R WCI  17
GALVESTON      CLOUDY    30  23  75 N25       30.66R WCI  16
ANGLETON       CLOUDY    27  21  78 N13       30.67R WCI  16
*BAY CITY      CLOUDY    27  24  87 N6        30.68R WCI  21
PALACIOS       CLOUDY    27  21  78 N20G26    30.68R WCI  13
$$

TXZ229>234-239>247-170300-
TEXAS COASTAL BEND AND RIO GRANDE PLAINS

CITY           SKY/WX    TMP DP  RH WIND       PRES   REMARKS
VICTORIA       CLOUDY    27  18  69 N15       30.70R WCI  15
*BEEVILLE      CLOUDY    29  15  54 N14G21    30.69R WCI  19
ROCKPORT       CLOUDY    29  22  75 N16       30.69R WCI  17
*PORT ARANSAS  NOT AVBL
*PORT LAVACA   CLOUDY    28  23  83 N12       30.70R WCI  17
*INGLESIDE     CLOUDY    30  21  69 N15       30.69R WCI  19
CORPUS CHRISTI CLOUDY    30  19  63 N15G26    30.70R WCI  19
CORPUS NAS     CLOUDY    32  22  66 N24G31    30.68R WCI  19
*ROBSTOWN      NOT AVBL
ALICE          CLOUDY    31  17  56 N13G21    30.70R WCI  21
KINGSVILLE NAS NOT AVBL
COTULLA        CLOUDY    33  10  38 N8        30.71R WCI  26
LAREDO         CLOUDY    33  21  61 N8        30.72R WCI  26
$$

TXZ248>255-170300-
DEEP SOUTH TEXAS

CITY           SKY/WX    TMP DP  RH WIND       PRES   REMARKS
BROWNSVILLE    NOT AVBL
PORT ISABEL    NOT AVBL
*SOUTH PADRE   NOT AVBL
HARLINGEN      NOT AVBL
*HEBBRONVILLE  CLOUDY    29  26  88 N3        30.69R
MCALLEN        NOT AVBL
*WESLACO       LGT SNOW  30  28  90 N13G18    30.69R WCI  20
FALFURRIAS     CLOUDY    32  22  68 N8        30.70S WCI  24
EDINBURG       CLOUDY    32  29  89 N10       30.71R WCI  24
*ZAPATA        CLOUDY    33  26  75 N5        30.71R WCI  28
$$

TXZ213>215-236>238-242>244-246-247-251-254-255-170300-
CMAN STATIONS

STATION/POSITION TIME  TEMP    WIND        PRES    WAVE
                       AIR SEA DIR/SP/G            HT/PER
                 (UTC) (F)     (DEG/KT/KT) (MB)    (FT/S)
SABINE PASS      0124   29 50  360/ 16/ 26 1038.8
SEA RIM ST PARK  0100   27     360/ 13/ 16 1037.3
NORTH JETTY/GLS  0118      45  350/ 20/ 24 1036.7
EAGLE POINT      0118   27 45  360/  8/ 12 1037.8
MORGANS POINT    0124      48   10/  6/  7 1038.1
PORT O`CONNOR    0124   29 38  350/ 25/ 29 1039.1
MALAQUITE BEACH  0124   31 52  350/ 21/ 26 1038.0
BAFFIN BAY       0124   30 48  330/ 18/ 22 1039.3
PORT ISABEL      0124   31 57  330/ 15/ 27 1036.2
$$




USA.gov is the U.S. government's official web portal to all federal, state and local government web resources and services.